Regional Weather Roundup
Issued by NWS

Home | Current Version | Previous Version | Text Only | Print | Product List | Glossary Off
Versions: 1 2 3 4 5 6 7 8 9 10 11 12 13 14 15 16 17 18 19 20 21 22 23 24 25 26 27 28 29 30 31 32 33 34 35 36 37 38 39 40 41 42 43 44 45 46 47 48 49 50

000
ASUS43 KLSX 190507
RWRMO

WEATHER SUMMARY FOR MISSOURI
NATIONAL WEATHER SERVICE SPRINGFIELD MO
1100 PM CST SAT NOV 18 2017

NOTE: "FAIR" INDICATES FEW OR NO CLOUDS BELOW 12,000 FEET WITH NO
       SIGNIFICANT WEATHER AND/OR OBSTRUCTIONS TO VISIBILITY.
       CURRENT SKY AND/OR WEATHER CONDITIONS ARE NOT AVAILABLE FOR
       CHILLICOTHE AND FARMINGTON.

MOZ001>031-035>038-043-044-053-054-190600-
...NORTHERN AND WESTERN MISSOURI...

CITY           SKY/WX    TMP DP  RH WIND       PRES   REMARKS
KANSAS CTY INT CLEAR     36  27  69 NW7       30.19S
KANSAS C DTWN  CLEAR     41  26  55 NW8       30.20R
LEE`S SUMMIT   CLEAR     40  27  59 N13       30.20R
ST JOSEPH      CLEAR     34  26  72 NW10      30.21R WCI  26
CHILLICOTHE      N/A     36  23  59 NW8       30.17R WCI  30
KIRKSVILLE     CLEAR     34  25  69 NW17G26   30.10R WCI  23

$$
MOZ066>068-077>081-088>096-101>105-190600-
...SOUTHWEST MISSOURI...

CITY           SKY/WX    TMP DP  RH WIND       PRES   REMARKS
SPRINGFIELD    CLEAR     39  31  72 NW8       30.16R
JOPLIN         CLEAR     39  32  76 NW8       30.22R
BRANSON        CLEAR     43  30  61 NW13G20   30.17R

$$
MOZ032>034-039>042-045>050-055>058-069>072-190600-
...CENTRAL MISSOURI...

CITY           SKY/WX    TMP DP  RH WIND       PRES   REMARKS
COLUMBIA       CLEAR     38  27  64 NW14      30.11R WCI  30
JEFFERSON CITY CLEAR     41  26  55 NW8G21    30.12R
ROLLA          CLEAR     38  25  59 NW14      30.09R WCI  30
SEDALIA        CLEAR     39  26  59 NW17      30.17R WCI  30
WHITEMAN AFB   CLEAR     39  21  48 NW14      30.13R
WARRENSBURG    PTCLDY    37  27  65 NW8       30.19R
OSAGE BEACH    CLEAR     42  27  55 VRB7G21   30.14R

$$
MOZ051-052-059>065-190600-
...EAST CENTRAL MISSOURI...

CITY           SKY/WX    TMP DP  RH WIND       PRES   REMARKS
ST LOUIS INTL  PTCLDY    40  29  64 NW23G31   30.02R WCI  30
SPIRIT OF STL  CLEAR     40  30  67 NW18G25   30.05R
ST CHARLES     PTCLDY    40  29  64 NW20G29   30.03R

$$
MOZ072>076-082>087-097>100-106>115-190600-
...SOUTH CENTRAL AND SOUTHEAST MISSOURI...

CITY           SKY/WX    TMP DP  RH WIND       PRES   REMARKS
CAPE GIRARDEAU CLEAR     43  32  65 NW10      30.03R
FARMINGTON     CLEAR     40  32  73 NW12G17   30.04R
POPLAR BLUFF   CLEAR     44  32  62 NW8       30.06R
WEST PLAINS    CLEAR     41  30  65 NW13G22   30.11R

$$



USA.gov is the U.S. government's official web portal to all federal, state and local government web resources and services.